CZ-3C DEB, 40855

Orbit data source: Space-Track

CZ-3C DEB, 40855 is space debris in HEO originally from a launch on Fri, 24 Feb 2012 UTC launched from the Xichang Space Center, China (XSC). Debris objects in space refer to the collection of defunct objects orbiting the Earth. Examples of debris include non-operational satellites, rocket bodies, and fragments generated from explosions, collisions, or faulty payload assembly.

Loading next visibility...
Identifier
40855, 2012-008V
Orbit
HEO
Country
Flag of CNCN / PRC
Related business
Manufacturer
CALT
Mission
Spacecraft
Bus & Motor
Unknown
Mass
Unknown
Launch date (UTC)
2012-02-24 (14 years ago)
Launch vehicle
Unknown
Launch site
Xichang Space Center, China (XSC)
Object type
Payload
Rocket body
Debris
Shape & HBR
Unknown shape, 0.2 m
Radar Cross Section
Medium (>0.1 m² and <1 m²)

Expand to show TLE details & history
Last TLE update: 2 weeks ago

TLE from 2 weeks ago
0 CZ-3C DEB
1 40855U 12008V   26160.20788782 -.00000028  00000-0  40782-3 0  9995
2 40855  22.7137 338.2349 7057182 210.8292 353.1563  2.32117364 98150
Epoch: 2026-06-09T04:59Z
TLE epoch observation values (Epoch: 2026-06-09T04:59:21.507Z)
Latitude
7.56508°
Longitude
167.38629°
Altitude
2,000.262 km
Speed
8.866 km/s
True Right ascension
09h 19m 14s
True Declination
7° 31' 37"
Sunlit
Object was in daylight at epoch
Visualization orbit readout
Latitude
Unknown
Longitude
Unknown
Altitude
Unknown
Speed
Unknown
Apparent Right ascension
Unknown
Apparent Declination
Unknown
Sunlit
N/A
Visualization observer readout
Local Sidereal Time
21:42:08
Azimuth
Unknown
Elevation
Unknown
Doppler factor
Unknown
Orbital elements
Apogee altitude
34,728.274 km
Perigee altitude
713.813 km
Semi-major axis
24,099.181 km
Eccentricity
0.70572
Inclination
22.7137°
RAAN
338.2349°
Arg. of periapsis
210.8292°
True anomaly
309.8976°
Mean anomaly
353.1563°
Eccentric anomaly
338.02663°
Mean motion
0.58015 °/min
Orbital period
620.53 mins
BSTAR
0.00040782
Loading maneuver chart data...
Computing Atmospheric mass density...
Loading historical data...
Loading historical data...
Loading historical data...
Loading historical data...
Loading historical data...
Loading historical data...
Loading historical data...

Documentation

Showing up to 5 results
|